Terminal Aerodrome Forecast
Issued by NWS

Home | Current Version | Previous Version | Text Only | Print | Product List | Glossary On
Versions: 1 2 3 4 5 6 7 8 9 10 11 12 13 14 15 16 17 18 19 20 21 22 23
000
FTUS43 KSGF 190800 AAB
TAFJLN
TAF AMD
KJLN 190803Z 1908/2006 VRB05KT P6SM VCSH BKN040 OVC150
      TEMPO 1908/1912 24012G18KT 4SM -TSRA BR BKN020 OVC040CB
     FM191400 25006KT P6SM SCT040 BKN100
     FM192000 26010KT 6SM -TSRA BR SCT020 OVC035CB
     FM192200 30012KT 5SM -TSRA BR OVC025CB
     FM200400 31013KT P6SM OVC050=

USA.gov is the U.S. government's official web portal to all federal, state and local government web resources and services.